map of HLP home
Great Circle Mapper logo
HLP - Airport
Location
City:  Jakarta, West Java, Indonesia
Name:Halim Perdanakusuma International Airport
ICAO / IATA:WIHH / HLP

Details
Type:Airport (Aerodrome, Airfield)
Use:Public/Civil, Military, International (customs port of entry)
Latitude:616'00"S (-6.266607)
Longitude:10653'28"E (106.891117)
Datum:WGS 1984
Elevation:84 ft (26 m)
Runways:1
Longest:9843 × 148 ft (3000 × 45 m), paved

Time
Time Zone:UTC+7
Local Time:

Weather
METAR:WIHH 231100Z 21009KT 5000 HZ FEW015 CB SCT017 28/23 Q1010 RMK CB ? RA TO W
TAF:WIHH 222300Z 2300/2324 03008G15KT 5000 HZ SCT018
BECMG 2304/2305 6000 PROB40
TEMPO 2309/2312 18009KT 4000 TSRA FEW018CB BKN020

Related Locations
Nearby:
Farthest:SKPA: 12450 mi / 20037 km
Paipa [Juan Jose Rondon], CO

Find:

   beyond  
but within

Other Information
Maps:
NOTAMs:
Links:
Sources:

  
flag of Indonesia   

Sectional Chart

Flight Planning
at skyvector.com

Satellite Image

Google Maps Satellite View

 

Copyright © 2004-2014 Karl L. Swartz. All rights reserved.
The Great Circle Mapper name and logo are trademarks of the Great Circle Mapper.
All other trademarks mentioned herein belong to their respective owners.
Please see credits for attibutions and further copyright information.

  Follow gcmap on Facebook Follow gcmap on Twitter

hCard Microformat

Geo Microformat